Location: Penton Mewsey
(51.2167°N, 1.5167°W)
Time: 22:47:32
(UTC+00:00)

Cosmos 1908 - Pass Details

Date: 30 March 2020
Orbit: 511 x 531 km, 82.5° (Epoch: 23 May)

Event Time Altitude Azimuth Distance (km) Brightness Sun altitude
Exits shadow 21:23:25 66° 310° (NW) 576 3.5 -24.1°
Drops below altitude 10° 21:27:03 10° 6° (N) 1,776 6.4 -24.6°
Sets 21:29:14 0° 9° (N) 2,674 7.3 -24.8°
